Regional Weather Roundup
Issued by NWS

Home | Current Version | Previous Version | Text Only | Print | Product List | Glossary On
Versions: 1 2 3 4 5 6 7 8 9 10 11 12 13 14 15 16 17 18 19 20 21 22 23 24 25 26 27 28 29 30 31 32 33 34 35 36 37 38 39 40 41 42 43 44 45 46 47 48 49 50
675
ASUS44 KJAN 210810
RWRMS

MISSISSIPPI HOURLY WEATHER ROUNDUP
NATIONAL WEATHER SERVICE JACKSON MS
300 AM CDT TUE OCT 21 2014

NOTE: "FAIR: INDICATES FEW OR NO CLOUDS BELOW 12,000 FEET WITH NO
SIGNIFICANT WEATHER AND/OR OBSTRUCTIONS TO VISIBILITY.

MSZ001>002-007>008-010>013-018>021-025>028-034>036-210900-
NORTHWEST MISSISSIPPI

CITY           SKY/WX    TMP DP  RH WIND       PRES   REMARKS
CLARKSDALE     FAIR      54  54 100 CALM      30.04F
CLEVELAND      FAIR      55  55  99 CALM      30.04S
GREENWOOD      CLEAR     50  48  93 CALM      30.04F
GREENVILLE     CLEAR     56  54  93 CALM      30.04S
GRENADA          N/A    N/A N/A N/A MISG        N/A
OLIVE BRANCH   CLEAR     54  54 100 CALM      30.03S
OXFORD         FAIR      46  46 100 CALM      30.05S
TUNICA         SUNNY     52  52 100 CALM      30.04F
$$

MSZ003>006-009-014>017-022>024-029>033-037>039-210900-
NORTHEAST MISSISSIPPI

CITY           SKY/WX    TMP DP  RH WIND       PRES   REMARKS
COLUMBUS AFB   CLEAR     48  48  99 CALM      30.03S
CORINTH        FAIR      48  46  93 CALM      30.02S
GOLDN TRIANGLE CLEAR     50  45  81 CALM      30.03S
STARKVILLE     FAIR      46  46 100 CALM      30.04S
TUPELO         CLEAR     52  49  89 CALM      30.03S
$$

MSZ040-058-210900-
CENTRAL MISSISSIPPI

CITY           SKY/WX    TMP DP  RH WIND       PRES   REMARKS
JACKSON INTL   CLEAR     51  49  92 CALM      30.03F
JACKSON HAWKNS CLEAR     53  50  89 CALM      30.03F
MERIDIAN KEY   CLEAR     49  48  97 CALM      30.03F
MERIDIAN NAS   CLEAR     50  48  93 NW3       30.03F
RAYMOND        FAIR      48  45  87 MISG      30.03F FOG
VICKSBURG      PTCLDY    49  48  97 CALM      30.03F
$$

MSZ059>079-210900-
SOUTH MISSISSIPPI

CITY           SKY/WX    TMP DP  RH WIND       PRES   REMARKS
BROOKHAVEN     FAIR      52  52 100 CALM      30.04F
COLUMBIA         N/A    N/A N/A N/A MISG        N/A
HATTIESBURG    CLEAR     52  49  89 CALM      30.03F
MCCOMB         CLEAR     60  49  66 N5        30.02F
NATCHEZ        CLEAR     52  48  87 CALM      30.03S
PINE BELT      CLEAR     52  46  82 N3        30.03S
$$

MSZ080>082-210900-
COASTAL MISSISSIPPI

CITY           SKY/WX    TMP DP  RH WIND       PRES   REMARKS
BILOXI         CLEAR     59  51  75 N5        30.00F
PASCAGOULA     CLEAR     49  47  93 CALM      30.01S
GULFPORT       CLEAR     54  51  90 CALM      30.00F
$$



USA.gov is the U.S. government's official web portal to all federal, state and local government web resources and services.